[[{"header":{"parameterUnit":"m.s-1","parameterCategory":1,"la1":30.2992,"la2":30.254,"lo1":-89.0895,"lo2":-89.0443,"dy":0.0025,"dx":0.0025,"nx":19,"ny":19,"refTime":"2026-03-12T21:00:00:Z","depth":0,"parameterNumber":2,"parameterNumberName":"U-component_of_WINDS"},"data":[0,0,0,-0.7382,-0.7383,-0.7438,-0.7438,-0.7511,-0.7512,0,0,0,0,0,0,0,0,0,0,0,-0.7367,-0.7367,-0.7382,-0.7384,-0.7438,-0.7438,-0.7511,-0.7512,0,0,0,0,0,0,0,0,0,0,0,-0.7366,-0.7367,-0.7368,-0.7384,-0.7438,-0.7438,-0.7511,-0.7469,0,0,0,0,0,0,0,0,0,0,-0.7416,-0.7401,-0.7367,-0.7368,-0.7384,-0.7438,-0.7438,-0.7467,-0.7472,-0.7488,0,-0.75,0,-0.7507,-0.7517,-0.7517,0,0,0,-0.7384,-0.7398,-0.7412,-0.7368,-0.7385,-0.7438,-0.7413,-0.747,-0.7475,-0.7494,-0.7501,-0.7504,-0.7508,-0.7517,-0.7518,-0.7605,-0.7605,0,0,-0.7381,-0.7377,-0.7408,-0.7415,-0.7405,-0.7412,-0.7415,-0.7473,-0.7481,-0.7502,-0.7506,-0.751,-0.7518,-0.7519,-0.7604,-0.7605,0,0,0,-0.7372,-0.7375,-0.7388,-0.7412,-0.7421,-0.7413,-0.7417,-0.7479,-0.7483,-0.7507,-0.751,-0.7518,-0.7519,-0.7604,-0.7605,-0.762,0,0,0,-0.737,-0.737,-0.7386,-0.7385,-0.742,-0.745,-0.7422,-0.7479,-0.7486,-0.751,-0.7518,-0.752,-0.7603,-0.7604,-0.7618,-0.7628,0,0,0,-0.7363,-0.7369,-0.7377,-0.7384,-0.7407,-0.7449,-0.7457,-0.7481,-0.7488,-0.7517,-0.752,-0.7603,-0.7604,-0.7617,-0.7626,-0.765,0,0,0,-0.7355,-0.739,-0.7377,-0.7418,-0.7407,-0.7458,-0.7457,-0.7496,-0.7522,-0.7519,-0.7604,-0.7604,-0.7617,-0.7625,-0.7648,-0.7669,-0.7677,0,0,-0.7398,-0.7395,-0.742,-0.741,-0.7462,-0.745,-0.7505,-0.7534,-0.7541,-0.7584,-0.7586,-0.7619,-0.7626,-0.7649,-0.7723,-0.7729,0,0,0,-0.7432,-0.745,-0.7465,-0.7489,-0.7511,-0.7531,-0.7551,-0.7562,-0.7598,-0.7562,-0.7634,-0.7638,-0.7652,-0.7662,-0.7668,-0.768,-0.7609,-0.7609,-0.7609,-0.7488,-0.7494,-0.7535,-0.7548,-0.7572,-0.7592,-0.7613,-0.7631,-0.7631,-0.7648,-0.7661,-0.7705,-0.7717,-0.7721,-0.7734,-0.7672,-0.7672,-0.7672,-0.7673,-0.7552,-0.7578,-0.7576,-0.7615,-0.7622,-0.7657,-0.7678,-0.7677,-0.7711,-0.7696,-0.7709,-0.7691,-0.7727,-0.7739,-0.7674,-0.7674,-0.7673,-0.7673,-0.7673,-0.7589,-0.7603,-0.7614,-0.765,-0.7677,-0.7689,-0.7722,-0.7727,-0.7733,-0.7745,-0.776,-0.7759,-0.776,-0.7752,-0.7752,-0.7752,-0.7752,-0.7752,-0.7752,-0.7623,-0.7636,-0.7661,-0.7687,-0.7703,-0.7726,-0.7747,-0.7764,-0.7785,-0.7787,-0.7787,-0.7786,-0.7729,-0.7715,-0.7755,-0.7754,-0.7754,-0.7754,-0.7754,-0.7686,-0.7673,-0.7712,-0.7728,-0.776,-0.7787,-0.7793,-0.7827,-0.7842,-0.7858,-0.7855,-0.7812,-0.781,-0.7806,-0.7795,-0.7852,-0.7852,-0.7852,-0.7852,-0.7718,-0.7718,-0.7759,-0.7785,-0.7811,-0.782,-0.7866,-0.7884,-0.79,-0.791,-0.7903,-0.7888,-0.7883,-0.7885,-0.7879,-0.7868,-0.7943,-0.7943,-0.7943,-0.7758,-0.776,-0.7797,-0.7811,-0.7835,-0.7857,-0.7901,-0.7933,-0.7948,-0.7947,-0.7918,-0.7915,-0.789,-0.7882,-0.788,-0.7871,-0.7851,0,0]},{"header":{"parameterUnit":"m.s-1","parameterCategory":1,"la1":30.2992,"la2":30.254,"lo1":-89.0895,"lo2":-89.0443,"dy":0.0025,"dx":0.0025,"nx":19,"ny":19,"refTime":"2026-03-12T21:00:00:Z","depth":0,"parameterNumber":3,"parameterNumberName":"V-component_of_WINDS"},"data":[0,0,0,3.0904,3.0905,3.0967,3.0967,3.1051,3.1052,0,0,0,0,0,0,0,0,0,0,0,3.089,3.0891,3.0904,3.0905,3.0967,3.0967,3.1051,3.1052,0,0,0,0,0,0,0,0,0,0,0,3.089,3.0891,3.0892,3.0906,3.0967,3.0967,3.1051,3.1002,0,0,0,0,0,0,0,0,0,0,3.0941,3.0934,3.0891,3.0892,3.0906,3.0967,3.0967,3.1,3.1005,3.1026,0,3.1048,0,3.1051,3.1058,3.1059,0,0,0,3.0901,3.093,3.0942,3.0892,3.0907,3.0967,3.0938,3.1003,3.1009,3.1034,3.1049,3.1052,3.1053,3.1059,3.1059,3.1196,3.1197,0,0,3.0898,3.0904,3.0938,3.0946,3.0939,3.0936,3.094,3.1006,3.1023,3.1049,3.1054,3.1054,3.106,3.106,3.1195,3.1196,0,0,0,3.0891,3.0902,3.0912,3.0943,3.0954,3.0938,3.0943,3.102,3.1023,3.1055,3.1055,3.106,3.1061,3.1194,3.1196,3.1241,0,0,0,3.0888,3.0898,3.0911,3.0915,3.0953,3.0988,3.0955,3.1018,3.1026,3.1055,3.106,3.1062,3.1193,3.1195,3.1238,3.1261,0,0,0,3.0885,3.0897,3.0908,3.0916,3.0943,3.0987,3.0994,3.102,3.1026,3.1059,3.1062,3.1193,3.1195,3.1235,3.1257,3.1297,0,0,0,3.0882,3.0949,3.0909,3.0983,3.0942,3.1016,3.0993,3.1048,3.1081,3.1061,3.1194,3.1195,3.1234,3.1254,3.1294,3.1331,3.1347,0,0,3.097,3.096,3.1003,3.0969,3.1051,3.1006,3.1094,3.1119,3.1116,3.1169,3.1172,3.1239,3.1256,3.1296,3.1442,3.1455,0,0,0,3.1032,3.1063,3.1084,3.1116,3.1137,3.1156,3.1166,3.1175,3.1219,3.1145,3.1266,3.1276,3.1299,3.1316,3.1327,3.1345,3.1204,3.1204,3.1204,3.1164,3.1157,3.1227,3.1227,3.1259,3.1268,3.1292,3.1305,3.1289,3.1318,3.1332,3.1422,3.1442,3.145,3.147,3.1353,3.1354,3.1354,3.1354,3.1289,3.1331,3.1307,3.1367,3.1358,3.1407,3.1418,3.1405,3.1448,3.1411,3.143,3.1388,3.1465,3.1481,3.1357,3.1357,3.1356,3.1356,3.1356,3.1373,3.1391,3.1401,3.1445,3.148,3.1477,3.1519,3.151,3.1502,3.1522,3.1535,3.1534,3.153,3.153,3.153,3.153,3.1531,3.1531,3.1531,3.1454,3.1464,3.1501,3.1527,3.1546,3.1568,3.1578,3.1595,3.1611,3.1601,3.1601,3.158,3.1475,3.1447,3.1536,3.1535,3.1534,3.1534,3.1533,3.158,3.1549,3.1607,3.1625,3.1654,3.1687,3.1676,3.1711,3.1724,3.1744,3.172,3.1644,3.1633,3.1624,3.16,3.1723,3.1723,3.1723,3.1723,3.1648,3.1642,3.1697,3.1726,3.1754,3.1748,3.181,3.1817,3.182,3.1827,3.1808,3.1777,3.1769,3.1762,3.175,3.1728,3.188,3.1881,3.1881,3.1723,3.1719,3.1774,3.1777,3.1798,3.1816,3.1873,3.1906,3.1903,3.1887,3.1831,3.1824,3.1775,3.1759,3.174,3.1722,3.1681,0,0]}]]